Location: Wien
(48.2082°N, 16.3738°E)
Time: 11:15:36
(UTC+01:00)

Transit 2A Rocket - All Passes

Search period start: 22 February 2024 00:00
Search period end: 03 March 2024 00:00
Orbit: 591 x 904 km, 66.7° (Epoch: 21 February)

Date Brightness Start Highest point End Pass type
(mag) Time Alt. Az. Time Alt. Az. Time Alt. Az.
22 Feb - 01:02:14 10° SSE 01:05:33 22° ESE 01:08:56 10° ENE night (unlit)
22 Feb - 02:43:31 10° SW 02:47:40 48° NW 02:52:00 10° NNE visible
22 Feb - 04:29:19 10° NW 04:31:18 13° NNW 04:33:19 10° N visible
22 Feb - 07:58:06 10° N 08:00:44 14° NNE 08:03:29 10° ENE daylight
22 Feb - 09:39:30 10° NNW 09:44:16 51° NE 09:49:28 10° SE daylight
22 Feb - 11:22:17 10° NW 11:26:35 29° WSW 11:31:10 10° S daylight
23 Feb - 00:20:26 10° SE 00:22:08 12° ESE 00:23:49 10° E night (unlit)
23 Feb - 01:59:32 10° SW 02:03:50 83° WNW 02:08:17 10° NE visible
23 Feb - 03:44:08 10° WNW 03:47:02 17° NNW 03:50:03 10° N visible
23 Feb - 07:15:01 10° N 07:16:24 11° NNE 07:17:50 10° NE daylight
23 Feb - 08:55:54 10° NNW 09:00:19 34° NE 09:05:06 10° ESE daylight
23 Feb - 10:38:10 10° NW 10:42:57 48° WSW 10:48:09 10° S daylight
24 Feb - 01:15:57 10° SSW 01:20:07 54° ESE 01:24:26 10° NE visible
24 Feb - 02:59:18 10° W 03:02:53 24° NW 03:06:36 10° NNE visible
24 Feb - 08:12:22 10° NNW 08:16:16 23° NE 08:20:25 10° E daylight
24 Feb - 09:54:17 10° NW 09:59:14 79° WSW 10:04:40 10° SSE daylight
24 Feb - 11:38:44 10° W 11:41:04 13° WSW 11:43:27 10° SW daylight
25 Feb - 00:32:47 10° S 00:36:31 30° ESE 00:40:21 10° NE night (unlit)
25 Feb - 02:14:50 10° WSW 02:18:51 37° NW 02:23:02 10° NNE visible
25 Feb - 04:01:20 10° NW 04:02:41 11° NNW 04:04:04 10° N visible
25 Feb - 07:28:56 10° N 07:32:06 17° NNE 07:35:24 10° ENE daylight
25 Feb - 09:10:32 10° NNW 09:15:26 65° NE 09:20:48 10° SE daylight
25 Feb - 10:53:41 10° WNW 10:57:35 22° WSW 11:01:44 10° SSW daylight
25 Feb - 23:50:19 10° SSE 23:53:02 17° ESE 23:55:48 10° ENE night (unlit)
26 Feb - 01:30:41 10° SW 01:34:56 63° NW 01:39:23 10° NNE visible
26 Feb - 03:15:50 10° WNW 03:18:22 15° NNW 03:20:57 10° N visible
26 Feb - 06:45:39 10° N 06:47:49 13° NNE 06:50:03 10° NE daylight
26 Feb - 08:26:53 10° NNW 08:31:32 41° NE 08:36:35 10° ESE daylight
26 Feb - 10:09:23 10° NW 10:14:00 37° WSW 10:19:00 10° S daylight
27 Feb - 00:46:54 10° SSW 00:51:09 74° ESE 00:55:36 10° NE night (unlit)
27 Feb - 02:30:51 10° W 02:34:09 21° NW 02:37:34 10° NNE visible
27 Feb - 06:03:13 10° NNE 06:03:26 10° NNE 06:03:38 10° NNE visible
27 Feb - 07:43:19 10° NNW 07:47:32 28° NE 07:52:04 10° E daylight
27 Feb - 09:25:24 10° NW 09:30:20 62° WSW 09:35:43 10° SSE daylight
28 Feb - 00:03:30 10° S 00:07:30 40° ESE 00:11:38 10° NE night (unlit)
28 Feb - 01:46:13 10° WSW 01:50:03 30° NW 01:54:03 10° NNE visible
28 Feb - 06:59:49 10° NNW 07:03:25 20° NE 07:07:13 10° E daylight
28 Feb - 08:41:34 10° NW 08:46:34 82° NE 08:52:02 10° SE daylight
28 Feb - 10:25:13 10° WNW 10:28:34 18° WSW 10:32:04 10° SSW daylight
28 Feb - 23:20:38 10° SSE 23:23:57 22° ESE 23:27:22 10° ENE night (unlit)
29 Feb - 01:01:54 10° SW 01:06:05 48° NW 01:10:27 10° NNE visible
29 Feb - 02:47:39 10° NW 02:49:43 13° NNW 02:51:49 10° N visible
29 Feb - 06:16:25 10° N 06:19:10 15° NNE 06:22:03 10° ENE daylight
29 Feb - 07:57:52 10° NNW 08:02:43 52° NE 08:08:00 10° SE daylight
29 Feb - 09:40:40 10° NW 09:45:02 29° WSW 09:49:42 10° S daylight
29 Feb - 22:38:49 10° SE 22:40:32 12° ESE 22:42:16 10° E night (unlit)
01 Mar - 00:17:56 10° SW 00:22:14 84° NW 00:26:43 10° NE night (unlit)
01 Mar - 02:02:29 10° WNW 02:05:26 17° NNW 02:08:31 10° N visible
01 Mar - 05:33:15 10° N 05:34:51 11° NNE 05:36:28 10° NE visible
01 Mar - 07:14:15 10° NNW 07:18:46 34° NE 07:23:37 10° ESE daylight
01 Mar - 08:56:33 10° NW 09:01:24 48° WSW 09:06:40 10° S daylight
01 Mar - 23:34:19 10° SSW 23:38:30 54° ESE 23:42:51 10° NE night (unlit)
02 Mar - 01:17:40 10° W 01:21:16 25° NW 01:25:02 10° NNE visible
02 Mar - 06:30:43 10° NNW 06:34:42 24° NE 06:38:56 10° E daylight
02 Mar - 08:12:39 10° NW 08:17:41 79° WSW 08:23:11 10° SSE daylight
02 Mar - 09:57:03 10° WNW 09:59:30 13° WSW 10:02:03 10° SW daylight
02 Mar - 22:51:10 10° S 22:54:54 30° ESE 22:58:46 10° NE night (unlit)
